Regional Weather Roundup
Issued by NWS

Home | Current Version | Previous Version | Graphics & Text | Print | Product List | Glossary On
Versions: 1 2 3 4 5 6 7 8 9 10 11 12 13 14 15 16 17 18 19 20 21 22 23 24 25 26 27 28 29 30 31 32 33 34 35 36 37 38 39 40 41 42 43 44 45 46 47 48 49 50
000
ASUS45 KBOU 310610
RWRCO

WEATHER ROUNDUP FOR COLORADO
NATIONAL WEATHER SERVICE DENVER/BOULDER CO
1200 AM MDT FRI JUL 31 2015

NOTE: "FAIR" INDICATES FEW OR NO CLOUDS BELOW 12000 FEET WITH NO
SIGNIFICANT WEATHER AND/OR OBSTRUCTIONS TO VISIBILITY.

COZ001>005-013-030-031-310700-
...NORTHWEST COLORADO...

CITY           SKY/WX    TMP DP  RH WIND       PRES   REMARKS
CRAIG          CLEAR     52  33  48 CALM      30.35R
HAYDEN         CLEAR     57  25  28 S6        30.37S
MEEKER         CLEAR     58  35  42 SE6       30.37R
MOUNT WERNER   NOT AVBL
STEAMBOAT SPGS CLEAR     57  35  44 E3        30.40S
WALDEN         CLEAR     50  37  62 SE6       30.51R
$$

COZ006>008-011-310700-
...WEST CENTRAL VALLEYS...

CITY           SKY/WX    TMP DP  RH WIND       PRES   REMARKS
GRAND JUNCTION PTCLDY    69  30  23 E7        30.20R
MONTROSE       PTCLDY    69  37  30 SE12      30.30R
EAGLE          CLEAR     63  30  29 SE5       30.40R
RIFLE          CLEAR     65  32  29 SE6       30.28R
DELTA          PTCLDY    71  32  23 NE8       30.25R
NUCLA          PTCLDY    70  34  26 E9        30.35S
$$

COZ017>023-064>068-310700-
...SOUTHWEST COLORADO...

CITY           SKY/WX    TMP DP  RH WIND       PRES   REMARKS
DURANGO        CLOUDY    62  57  83 CALM      30.45R
CORTEZ         CLEAR     66  55  67 VRB5      30.37R
PAGOSA SPRINGS CLOUDY    64  51  64 CALM      30.52R
TELLURIDE      MOCLDY    61  33  34 SE3       30.59S
WOLF CREEK PAS NOT AVBL
$$

COZ009-010-012-014-032>034-037-058>063-310700-
...CENTRAL COLORADO...

CITY           SKY/WX    TMP DP  RH WIND       PRES   REMARKS
ASPEN          PTCLDY    56  36  47 S6        30.47R
BUENA VISTA    PTCLDY    56  50  80 W7        30.55R
COPPER MTN     CLEAR     54  37  54 SE14G21   30.81F
BERTHOUD PASS  FAIR      43  32  65 E21G29    30.86S
COTTONWOOD PAS PTCLDY    57  45  62 CALM      30.68S
GUNNISON       PTCLDY    66  45  45 E12       30.51R
KREMMLING      CLEAR     55  32  41 CALM      30.48R
LEADVILLE      CLEAR     50  44  80 CALM      30.66R
MONARCH PASS   CLOUDY    46  45  93 E9        30.92R
SALIDA         MOCLDY    67  50  54 SE3       30.59R
SUNLIGHT       PTCLDY    57  27  30 CALM      30.72S
WILKERSON PASS PTCLDY    50  41  71 S3        30.81S
$$

COZ069>075-310700-
...SAN LUIS VALLEY/SANGRE DE CRISTO MOUNTAINS...

CITY           SKY/WX    TMP DP  RH WIND       PRES   REMARKS
ALAMOSA        CLOUDY    59  53  80 E3        30.49S
LA VETA PASS   CLOUDY    54  45  71 MISG      30.69S
SAGUACHE       CLOUDY    59  50  72 CALM      30.54R
$$

COZ035-036-038>040-310700-
...NORTHERN COLORADO FRONT RANGE...

CITY           SKY/WX    TMP DP  RH WIND       PRES   REMARKS
DENVER INTL AP MOCLDY    72  51  47 S17       30.33S
DMNS CITY PARK   N/A     70  54  56 SE9       30.33R
AURORA         MOCLDY    70  52  53 S16       30.35R
FRONT RANGE AP NOT AVBL
ERIE MUNI ARPT PTCLDY    67  57  70 CALM      30.32R
BOULDER MUN AP PTCLDY    70  54  56 N7        30.33R
CENTENNIAL     MOCLDY    70  52  52 S20G26    30.37R
BROOMFIELD     PTCLDY    70  54  56 N8        30.35R
FORT COLLINS   CLEAR     66  55  68 NE9       30.33F
LONGMONT       CLEAR     71  59  65 N7        30.33S
$$

COZ041-046-047-076>085-087-088-310700-
...PIKES PEAK/PALMER DIVIDE AND SOUTHERN FOOTHILLS...

CITY           SKY/WX    TMP DP  RH WIND       PRES   REMARKS
COLO. SPRINGS  MOCLDY    66  53  63 E8        30.44R
A. F. ACADEMY  MOCLDY    60  52  75 NW1       30.46R
ELLICOTT       PTCLDY   N/A N/A N/A E9        30.42F
FALCON         PTCLDY    58  52  80 CALM      30.49S
FORT CARSON    PTCLDY    64  54  69 NE5       30.41R
LIMON          PTCLDY    59  53  80 S5        30.38F
MONUMENT HILL  PTCLDY    61  50  67 S13       30.47F
TRINIDAD       MOCLDY    67  58  72 W5        30.37R
$$

COZ042>045-048>051-090-091-310700-
...NORTHEAST COLORADO...

CITY           SKY/WX    TMP DP  RH WIND       PRES   REMARKS
GREELEY ARPT   CLEAR     66  57  72 NE5       30.32R
AKRON          CLEAR     68  57  68 S8        30.30F
BURLINGTON     PTCLDY    67  62  84 SW7       30.27F
WRAY           CLEAR     61  58  91 N7        30.27S
STERLING       CLEAR     63  55  77 NW5       30.26S
HOLYOKE        NOT AVBL
FORT MORGAN    CLEAR     66  55  67 S8        30.31S
$$

COZ086-089-092>099-310700-
...SOUTHEAST COLORADO...

CITY           SKY/WX    TMP DP  RH WIND       PRES   REMARKS
PUEBLO         PTCLDY    74  53  48 E5        30.32R
LA JUNTA       PTCLDY    70  61  73 E7        30.29S
LAMAR          PTCLDY    69  65  86 E6        30.26F
SPRINGFIELD      N/A     68  66  93 E8        30.32S
$$



USA.gov is the U.S. government's official web portal to all federal, state and local government web resources and services.